This is the latest recevied weather packets stored in our database for station/object N6GPM. If no packets are shown the sender has not sent any weather packets the latest 10 day(s).
| Time | Temp. | Humidity | Pressure | Rain* | Wind** | Luminosity | Snow |
|---|---|---|---|---|---|---|---|
| 1787768362 | 37.22° C | 26% | 1018.6 hPa | 0 mm | - | 920 W/m² | - |
| 1787768057 | 37.22° C | 25% | 1018.5 hPa | 0 mm | - | 912 W/m² | - |
| 1787767752 | 37.78° C | 27% | 1018.4 hPa | 0 mm | - | 895 W/m² | - |
| 1787767447 | 37.78° C | 28% | 1018.5 hPa | 0 mm | - | 889 W/m² | - |
| 1787767145 | 37.78° C | 26% | 1018.4 hPa | 0 mm | - | 878 W/m² | - |
| 1787766843 | 37.78° C | 24% | 1018.4 hPa | 0 mm | - | 866 W/m² | - |
| 1787766537 | 37.78° C | 25% | 1018.4 hPa | 0 mm | - | 850 W/m² | - |
| 1787766231 | 37.78° C | 24% | 1018.5 hPa | 0 mm | - | 842 W/m² | - |
| 1787765927 | 36.67° C | 24% | 1018.4 hPa | 0 mm | - | 827 W/m² | - |
| 1787765623 | 36.67° C | 24% | 1018.5 hPa | 0 mm | - | 814 W/m² | - |
| 1787765319 | 36.67° C | 24% | 1018.5 hPa | 0 mm | - | 796 W/m² | - |
| 1787765018 | 35.56° C | 27% | 1018.2 hPa | 0 mm | - | 785 W/m² | - |
| 1787764713 | 36.11° C | 27% | 1018.2 hPa | 0 mm | - | 768 W/m² | - |
| 1787764408 | 36.67° C | 26% | 1018.3 hPa | 0 mm | - | 749 W/m² | - |
| 1787764105 | 35.56° C | 28% | 1018.3 hPa | 0 mm | - | 738 W/m² | - |
| 1787763800 | 35.56° C | 28% | 1018.1 hPa | 0 mm | - | 721 W/m² | - |
| 1787763495 | 35.56° C | 28% | 1018.4 hPa | 0 mm | - | 704 W/m² | - |
| 1787763194 | 35° C | 29% | 1018.3 hPa | 0 mm | - | 685 W/m² | - |
| 1787762889 | 35.56° C | 29% | 1018.2 hPa | 0 mm | - | 671 W/m² | - |
| 1787762584 | 34.44° C | 30% | 1018.3 hPa | 0 mm | - | 655 W/m² | - |
| 1787762281 | 33.89° C | 32% | 1018.2 hPa | 0 mm | - | 636 W/m² | - |
| 1787761975 | 33.89° C | 32% | 1018 hPa | 0 mm | - | 614 W/m² | - |
| 1787761670 | 33.89° C | 33% | 1018.1 hPa | 0 mm | - | 599 W/m² | - |
| 1787761366 | 32.78° C | 35% | 1017.9 hPa | 0 mm | - | 581 W/m² | - |
| 1787761065 | 32.78° C | 36% | 1017.9 hPa | 0 mm | - | 560 W/m² | - |
* Rain latest hour (hover to see other rain measurements)
** Current wind speed in m/s (hover to see current wind gust speed)